Hoquiam, WA
on Saturday, November 10, 2012

Saturday
Previous Day Next Day
Daily Summary
 ActualAverageRecord
Temperature
Mean Temperature °F / °C 47°F / 8°C  
Max Temperature 46°F / 8°C 52°F / 11°C 61°F / 16°C (1976)
Min Temperature 30°F / -1°C 41°F / 5°C 30°F / -1°C (2012)
Degree Days
Heating Degree Days 27 18  
Month to date heating degree days 171  
Cooling Degree Days 0 0  
Month to date cooling degree days 0  
Year to date cooling degree days 23  
Moisture
Dew Point 32°F / 0°C   
Average Humidity 80    
Maximum Humidity 96    
Minimum Humidity 56    
Precipitation
Precipitation 0.00 in / 0.00 cm 0.38 in / 9.65 cm 2.22 in / 5.64 cm (1995)
Month to date precipitation 3.54  
Year to date precipitation 49.96  
Wind
Wind Speed 5 mph / 8 km/h   
Max Wind Speed 10 mph / 16 km/h   
Max Gust Speed mph / km/h   
Visibility 9 miles / 15 kilometers   
Events     

Key: T is trace of precipitation, MM is missing value
Source: NWS Daily Summary
Time(PST)TemperatureDew PointHumidity Pressure Visibility Wind DirectionWind SpeedGust SpeedPrecipitationEvents Conditions
12:53 AM 32.0°F / 0.0°C 30.9°F / -0.6°C 96% 29.97 in / 1014.9 hPa 6.0 miles / 9.7 kilometers ENE 3.5 mph / 5.6 km/h - N/A   Clear
1:53 AM 30.9°F / -0.6°C 30.0°F / -1.1°C 96% 29.99 in / 1015.4 hPa 6.0 miles / 9.7 kilometers ENE 3.5 mph / 5.6 km/h - N/A   Scattered Clouds
2:53 AM 32.0°F / 0.0°C 30.9°F / -0.6°C 96% 29.99 in / 1015.6 hPa 7.0 miles / 11.3 kilometers NE 5.8 mph / 9.3 km/h - N/A   Mostly Cloudy
3:53 AM 33.1°F / 0.6°C 32.0°F / 0.0°C 96% 30.00 in / 1015.9 hPa 8.0 miles / 12.9 kilometers ENE 3.5 mph / 5.6 km/h - N/A   Overcast
4:53 AM 34.0°F / 1.1°C 32.0°F / 0.0°C 92% 30.02 in / 1016.5 hPa 9.0 miles / 14.5 kilometers NE 4.6 mph / 7.4 km/h - N/A   Overcast
5:53 AM 34.0°F / 1.1°C 33.1°F / 0.6°C 96% 30.03 in / 1016.8 hPa 9.0 miles / 14.5 kilometers East 5.8 mph / 9.3 km/h - N/A   Overcast
6:53 AM 35.1°F / 1.7°C 32.0°F / 0.0°C 89% 30.04 in / 1017.1 hPa 10.0 miles / 16.1 kilometers NE 5.8 mph / 9.3 km/h - N/A   Overcast
7:53 AM 34.0°F / 1.1°C 32.0°F / 0.0°C 92% 30.06 in / 1017.8 hPa 9.0 miles / 14.5 kilometers ENE 5.8 mph / 9.3 km/h - N/A   Overcast
8:53 AM 37.0°F / 2.8°C 32.0°F / 0.0°C 82% 30.08 in / 1018.5 hPa 10.0 miles / 16.1 kilometers NE 5.8 mph / 9.3 km/h - N/A   Mostly Cloudy
9:53 AM 41.0°F / 5.0°C 32.0°F / 0.0°C 70% 30.10 in / 1019.1 hPa 10.0 miles / 16.1 kilometers NE 6.9 mph / 11.1 km/h - N/A   Partly Cloudy
10:53 AM 43.0°F / 6.1°C 34.0°F / 1.1°C 71% 30.12 in / 1019.7 hPa 10.0 miles / 16.1 kilometers ENE 5.8 mph / 9.3 km/h - N/A   Scattered Clouds
11:53 AM 44.1°F / 6.7°C 34.0°F / 1.1°C 68% 30.12 in / 1020.0 hPa 10.0 miles / 16.1 kilometers East 8.1 mph / 13.0 km/h - N/A   Clear
12:53 PM 46.0°F / 7.8°C 30.9°F / -0.6°C 56% 30.12 in / 1019.9 hPa 10.0 miles / 16.1 kilometers ENE 10.4 mph / 16.7 km/h - N/A   Clear
1:53 PM 46.9°F / 8.3°C 34.0°F / 1.1°C 61% 30.12 in / 1019.9 hPa 10.0 miles / 16.1 kilometers East 10.4 mph / 16.7 km/h - N/A   Clear
2:53 PM 46.9°F / 8.3°C 34.0°F / 1.1°C 61% 30.13 in / 1020.2 hPa 10.0 miles / 16.1 kilometers East 5.8 mph / 9.3 km/h - N/A   Clear
3:53 PM 46.0°F / 7.8°C 30.9°F / -0.6°C 56% 30.14 in / 1020.7 hPa 10.0 miles / 16.1 kilometers East 9.2 mph / 14.8 km/h - N/A   Mostly Cloudy
4:53 PM 42.1°F / 5.6°C 32.0°F / 0.0°C 67% 30.15 in / 1021.0 hPa 10.0 miles / 16.1 kilometers ENE 5.8 mph / 9.3 km/h - N/A   Clear
5:53 PM 39.0°F / 3.9°C 30.9°F / -0.6°C 73% 30.17 in / 1021.4 hPa 10.0 miles / 16.1 kilometers NE 5.8 mph / 9.3 km/h - N/A   Clear
6:53 PM 37.9°F / 3.3°C 32.0°F / 0.0°C 79% 30.18 in / 1021.9 hPa 10.0 miles / 16.1 kilometers NE 4.6 mph / 7.4 km/h - N/A   Clear
7:53 PM 37.4°F / 3.0°C 30.2°F / -1.0°C 75% 30.17 in / 1021.6 hPa 10.0 miles / 16.1 kilometers ENE 3.5 mph / 5.6 km/h - N/A   Clear
8:53 PM 35.6°F / 2.0°C 30.2°F / -1.0°C 81% 30.18 in / 1021.9 hPa 10.0 miles / 16.1 kilometers ENE 4.6 mph / 7.4 km/h - N/A   Clear
9:53 PM 36.0°F / 2.2°C 32.0°F / 0.0°C 86% 30.19 in / 1022.4 hPa 10.0 miles / 16.1 kilometers ENE 5.8 mph / 9.3 km/h - N/A   Scattered Clouds
10:53 PM 35.1°F / 1.7°C 32.0°F / 0.0°C 89% 30.19 in / 1022.4 hPa 10.0 miles / 16.1 kilometers ENE 6.9 mph / 11.1 km/h - N/A   Partly Cloudy
11:53 PM 35.1°F / 1.7°C 32.0°F / 0.0°C 89% 30.20 in / 1022.5 hPa 10.0 miles / 16.1 kilometers ENE 8.1 mph / 13.0 km/h - N/A   Mostly Cloudy
Moon Phase
Nov. 10 Nov. 13 Nov. 20 Nov. 28 Dec. 06
Sunrise:07:12 AM (PST) Moon Rise:03:11 AM (PST)11/10
Sunset:04:46 PM (PST) Moon Set:02:46 PM (PST)11/10

Copyright © 2014 The Weather Underground, Inc.